RH
97 97 97 88 96 97 98 98 93 98 98 98 97 78 78 87 93 95 84 68 65 68 64 55 58 57 58 59 58 58 62 57 60 60 60 61 62 61 63 62 64 67 75
94 94 98 94 95 94 98 94 89 98 98 96 96 77 79 93 94 93 91 85 73 63 58 55 55 57 61 60 58 60 59 58 61 58 64 58 61 61 60 60 62 65 75
91 93 97 96 93 90 91 78 89 97 98 94 94 79 79 91 94 90 86 84 83 80 61 56 60 56 57 55 58 58 57 58 60 64 63 56 61 58 60 60 61 62 70
87 93 94 96 93 84 81 78 93 98 98 96 87 84 81 80 90 89 88 88 88 86 81 71 58 54 54 57 56 57 58 57 59 61 63 58 62 58 60 59 59 61 67
84 85 89 94 87 81 76 79 96 93 98 98 88 86 81 80 90 82 90 90 91 92 94 81 81 76 66 62 53 57 57 60 59 58 64 61 64 59 58 59 60 61 62
81 83 86 92 79 78 77 88 92 95 95 93 79 79 81 78 82 92 93 87 93 92 92 89 92 92 82 64 60 53 55 57 56 60 66 64 68 57 60 59 59 64 61
76 81 82 84 75 73 72 82 87 91 91 80 80 81 82 79 81 84 91 96 94 93 91 90 94 96 95 77 62 67 52 53 57 59 63 61 66 58 57 58 59 62 70
73 74 75 76 72 73 76 79 81 90 88 82 81 81 85 78 79 80 95 90 94 95 91 84 88 89 88 92 86 74 72 57 53 58 64 63 64 61 56 56 57 61 60
70 70 68 72 71 68 72 77 78 79 84 86 71 85 91 95 94 92 92 94 92 95 94 88 86 82 81 90 79 83 76 77 55 58 58 62 60 56 56 57 56 56 60
66 69 68 68 68 67 68 74 72 74 78 80 86 75 82 89 94 96 93 94 95 89 94 96 91 88 82 92 77 78 78 76 59 54 54 57 60 52 56 54 64 61 61
64 66 68 67 68 68 66 69 73 75 70 74 71 88 91 91 90 94 97 96 95 96 96 95 95 94 85 91 87 83 77 72 57 55 55 57 62 52 60 55 55 59 60
67 67 66 66 66 67 68 68 70 70 70 73 80 82 84 83 88 89 95 95 95 94 96 96 95 95 91 91 80 78 78 72 59 56 56 55 60 53 60 60 59 60 61
68 68 66 69 69 66 68 68 71 72 73 76 81 77 80 78 81 82 88 95 94 94 94 96 96 95 84 92 89 84 80 78 74 57 57 57 56 54 55 58 58 60 61
60 65 65 67 70 71 69 70 72 75 77 78 80 78 80 80 80 79 81 89 94 94 96 90 97 96 95 95 92 87 87 81 77 68 61 59 62 62 59 58 63 61 61
64 72 68 70 79 79 75 75 74 73 76 79 79 78 72 83 81 80 80 77 77 92 91 92 95 96 94 96 93 92 92 83 80 77 74 74 74 67 66 67 65 63 61
67 73 73 74 75 74 78 79 79 81 82 79 77 81 81 86 82 84 86 80 77 75 72 84 95 96 94 86 92 93 93 89 83 81 80 80 78 73 74 70 66 64 62
69 70 71 72 70 72 72 74 77 82 78 80 77 80 78 84 84 85 86 85 83 79 72 86 94 95 97 95 94 95 94 95 94 82 78 78 78 75 76 74 68 66 63
75 68 68 68 69 69 71 73 80 75 75 82 80 84 80 81 87 87 82 80 82 83 78 77 95 96 95 95 96 96 92 88 95 85 81 79 79 74 74 75 70 68 67
91 84 77 71 70 70 71 68 69 75 78 78 81 82 76 88 85 85 81 80 83 74 83 85 95 95 91 93 97 95 95 93 86 82 79 79 77 75 71 75 70 70 71
97 94 91 85 81 78 76 72 70 73 78 76 78 78 77 82 77 80 79 75 77 78 81 84 94 94 88 88 94 97 98 95 94 79 83 81 79 76 73 75 74 76 76
96 95 96 97 96 93 86 87 86 82 78 75 77 78 74 74 79 72 72 77 77 77 80 81 90 93 89 89 91 97 96 96 94 94 93 92 94 94 92 80 79 80 73
95 97 98 97 97 95 94 94 90 92 91 88 86 85 77 86 82 83 80 78 72 74 78 78 80 83 84 82 89 92 96 96 98 91 93 92 92 96 94 96 80 76 72
94 96 96 97 98 96 98 98 97 96 95 93 91 91 92 86 88 83 86 85 83 79 73 72 76 78 78 77 78 89 89 89 95 89 81 92 92 86 90 88 81 76 73
98 97 96 96 96 96 98 98 98 96 97 96 95 93 92 93 94 93 93 93 89 88 84 85 84 80 78 78 75 73 76 83 83 85 81 92 86 82 80 86 83 79 76
99 98 97 97 98 96 98 98 99 98 97 96 96 95 95 94 93 95 95 94 94 94 94 92 90 93 91 85 81 85 87 84 87 80 83 81 83 83 80 77 74 80 81
98 98 99 97 97 97 98 98 99 97 97 96 96 96 97 96 95 96 97 96 98 96 98 99 99 99 95 93 91 82 80 88 95 94 88 85 87 84 83 80 72 62 67
Wind_Speed
7 4 4 6 6 5 4 4 4 4 5 6 4 8 8 6 6 3 2 11 13 11 15 13 13 13 12 13 12 12 13 12 12 13 13 15 15 15 16 15 14 15 17
7 7 4 6 6 6 5 4 4 5 5 6 5 8 9 5 6 6 3 5 9 13 12 11 11 13 12 12 12 12 11 12 12 12 14 11 14 14 15 15 14 13 15
9 7 7 5 6 6 8 4 3 4 5 4 6 6 8 6 5 6 4 4 5 8 10 12 12 9 9 10 11 10 9 11 11 11 11 12 12 12 13 14 14 13 14
8 7 6 6 5 6 8 5 4 4 4 4 5 5 6 6 5 5 4 3 4 4 6 8 8 8 8 9 9 10 9 8 10 10 10 11 10 12 12 12 12 13 12
9 9 7 5 7 7 7 7 3 6 5 3 5 4 5 5 4 4 4 4 5 4 4 9 11 8 3 9 6 9 8 9 8 9 9 9 10 11 11 11 12 12 12
10 9 7 6 7 7 6 6 8 3 5 5 6 6 4 3 4 4 4 3 4 4 5 5 4 5 8 4 5 7 8 7 6 7 6 9 10 9 10 10 11 11 12
10 11 7 7 7 9 8 10 7 9 3 4 6 5 4 4 3 2 3 3 4 3 4 4 3 2 3 7 3 6 4 5 6 6 7 7 8 8 9 9 10 10 12
12 11 11 9 10 8 10 12 11 6 3 6 5 3 3 1 1 0 1 2 4 3 4 4 4 3 1 2 3 6 7 1 4 5 6 7 8 8 8 8 8 9 10
13 13 12 11 11 10 10 13 12 11 9 3 8 6 3 5 2 1 2 2 4 3 3 4 4 4 2 1 2 3 6 5 5 4 5 7 5 6 7 9 8 9 10
16 13 13 13 12 9 11 11 11 8 8 10 2 2 2 5 4 2 2 3 4 5 5 4 4 4 4 2 2 3 5 7 6 3 3 4 4 5 6 8 10 9 10
16 14 13 13 12 9 11 13 13 10 10 10 9 3 2 3 3 3 3 3 2 4 4 4 5 5 5 4 3 4 4 6 5 4 5 4 5 6 7 6 7 8 8
11 13 14 13 12 11 12 11 12 12 11 9 5 4 4 4 4 3 3 2 3 3 4 4 4 4 4 4 5 6 5 4 5 5 4 5 6 5 7 9 7 7 7
10 12 14 13 11 12 11 11 12 10 11 9 9 5 3 4 4 3 3 2 2 2 2 3 4 4 5 4 5 7 6 5 5 6 5 5 4 3 6 7 7 7 8
10 11 11 11 10 10 10 10 8 8 8 8 10 6 4 4 4 4 5 5 2 0 1 4 3 5 4 5 7 11 5 6 5 8 7 6 5 1 5 7 8 8 7
6 7 9 9 8 9 10 10 9 10 9 9 8 8 7 4 4 4 4 4 5 4 6 4 4 5 5 4 6 5 6 8 9 9 8 10 8 2 7 8 8 8 8
7 9 8 7 9 10 10 10 7 7 9 7 6 8 7 4 5 4 3 4 3 5 4 5 5 2 5 5 5 5 6 8 10 11 12 11 10 7 8 9 9 9 9
8 10 11 9 10 10 10 10 8 8 10 8 9 10 10 7 6 5 4 3 4 3 4 0 2 2 4 5 4 4 4 4 4 11 12 12 12 10 10 11 11 11 10
6 9 11 12 11 10 10 11 9 9 11 10 11 9 10 6 7 6 6 8 5 4 4 5 2 3 3 2 3 5 4 3 4 8 11 12 13 13 12 12 12 12 10
5 4 6 9 10 10 10 11 11 10 10 10 9 11 11 8 9 6 7 7 5 4 4 4 3 1 1 2 3 2 2 2 3 6 12 12 14 13 13 13 12 11 9
8 8 5 5 6 7 8 8 8 9 9 9 9 11 11 11 12 9 8 10 8 8 6 4 4 3 2 2 3 4 3 1 3 3 5 7 9 12 14 16 14 11 10
10 10 10 8 6 5 5 8 7 8 9 9 7 7 9 11 15 12 9 9 9 8 6 7 3 3 4 3 8 4 4 2 3 3 3 3 3 4 5 14 9 11 12
12 12 11 10 11 8 11 16 11 8 5 6 8 7 8 11 12 13 15 14 14 12 11 8 8 6 7 5 4 6 5 4 3 5 5 4 4 4 4 3 13 15 14
11 11 11 10 9 9 13 12 12 6 7 10 8 5 6 6 8 7 11 11 13 16 13 12 10 11 8 10 10 8 7 7 5 3 7 6 3 6 4 4 15 17 16
8 9 10 11 10 9 13 14 15 11 9 7 8 8 9 7 7 9 8 10 12 11 11 8 10 10 8 9 12 12 11 5 4 3 5 4 3 5 3 4 14 18 18
5 6 7 9 9 9 13 14 11 8 8 7 7 7 7 7 7 12 9 11 11 11 11 15 15 12 14 18 12 8 6 8 3 3 5 3 3 3 3 4 7 18 19
4 5 5 5 7 5 8 10 10 5 7 7 7 7 11 10 10 12 11 10 10 9 8 6 7 9 14 15 21 13 10 10 4 2 4 6 4 5 3 4 7 8 10
Wind_Direction
157 147 151 138 138 123 119 118 119 118 114 116 108 120 122 118 113 97 94 126 121 116 108 109 112 108 107 104 99 92 89 79 82 77 63 70 61 60 56 54 45 37 34
160 150 153 147 143 136 120 133 134 125 122 130 116 130 129 110 110 109 88 70 111 128 122 119 117 114 110 107 100 94 93 86 81 70 71 65 71 61 61 58 53 42 36
162 162 147 163 156 140 128 126 109 92 101 116 121 129 129 115 107 108 101 93 62 76 109 117 129 115 112 114 109 92 91 79 81 73 74 65 61 64 63 60 58 51 36
161 158 162 158 155 144 139 135 137 108 112 124 123 131 126 120 99 95 83 97 90 71 71 109 126 124 116 110 105 98 98 95 74 82 73 69 66 63 61 60 60 63 44
160 171 168 158 152 149 148 144 131 140 142 121 123 114 117 125 114 108 100 104 104 99 86 72 51 47 94 119 113 108 102 84 73 76 74 72 67 69 59 60 56 49 63
169 175 164 143 165 149 148 135 143 119 143 143 119 81 66 77 122 125 136 115 115 110 100 87 59 33 14 79 114 114 106 83 88 79 70 83 76 71 63 60 58 52 52
183 179 167 151 184 156 168 149 140 145 101 147 103 81 49 47 82 119 131 155 136 132 125 118 98 63 12 33 89 46 130 116 106 93 80 80 87 80 76 67 63 54 56
190 185 166 180 186 146 159 160 158 144 121 183 143 118 147 113 88 185 132 188 158 155 155 142 131 129 65 19 4 12 357 98 106 117 114 102 90 89 76 80 83 72 68
189 186 176 183 185 160 170 170 165 163 161 200 184 133 135 206 126 345 237 227 187 180 183 167 162 152 152 200 16 347 327 345 125 132 127 108 98 89 78 84 83 82 76
185 183 173 178 183 173 169 171 164 170 155 175 126 99 85 140 162 183 280 230 221 211 193 195 176 177 176 211 239 240 295 309 142 163 137 119 108 103 92 91 76 72 69
177 180 174 173 182 178 172 173 169 170 172 173 183 151 111 67 83 132 179 212 279 235 211 200 191 184 186 189 220 251 268 303 186 160 182 145 134 124 108 96 89 73 72
164 181 174 178 182 177 175 176 172 176 174 178 176 155 152 159 173 148 124 154 196 240 217 200 199 193 184 188 206 220 247 293 219 191 184 180 144 140 126 109 101 97 82
165 182 176 178 182 179 176 172 173 177 179 178 173 175 156 167 140 129 117 115 167 243 203 222 210 199 191 186 194 194 224 264 294 179 212 166 160 170 157 137 124 108 99
179 171 178 175 175 174 170 170 173 175 176 183 182 181 171 179 162 157 150 141 106 263 305 241 195 193 196 192 196 188 197 220 246 181 192 178 162 3 162 156 125 126 118
149 154 168 165 155 157 165 170 179 181 179 182 188 186 195 194 181 181 163 155 150 174 231 236 201 190 192 182 205 184 182 197 193 177 169 147 145 119 178 143 140 140 140
143 146 147 153 163 168 167 172 175 174 174 188 187 185 192 177 194 181 186 183 165 158 215 187 215 174 173 191 202 185 192 188 183 162 152 152 161 176 164 161 159 164 166
154 157 166 163 172 179 179 179 175 172 186 180 189 192 203 183 190 187 182 179 181 159 202 216 151 168 172 163 167 182 190 187 188 174 170 169 178 188 185 176 178 177 178
167 173 172 180 179 181 180 181 177 180 191 191 196 190 209 186 195 186 193 203 190 176 158 200 168 175 176 185 165 165 182 184 185 195 184 190 193 198 200 186 188 188 185
175 155 160 184 188 187 186 192 188 181 189 198 191 197 210 179 204 193 192 190 189 174 162 150 168 123 134 153 115 102 159 161 203 215 197 201 206 205 208 197 195 193 183
183 189 168 172 175 176 177 178 180 181 189 202 195 202 204 190 205 200 198 200 188 184 174 159 164 157 157 182 137 166 182 167 192 215 204 183 204 212 212 204 198 196 186
184 178 181 178 152 174 185 177 190 201 206 213 208 207 212 207 206 198 189 203 188 195 183 189 161 151 168 162 195 164 169 142 203 177 163 196 179 196 214 214 193 183 193
186 177 189 190 194 206 201 200 199 203 206 230 221 197 214 207 213 208 207 200 196 195 199 198 201 203 194 183 140 164 138 138 219 201 171 211 163 192 217 199 180 184 202
175 184 187 185 198 199 192 189 190 188 203 220 216 216 221 219 202 196 218 217 211 208 200 197 206 210 197 184 155 169 188 181 195 166 172 204 165 210 194 205 195 191 203
176 182 190 194 201 212 200 202 194 211 219 221 220 221 228 218 202 194 213 219 218 212 209 197 210 219 210 177 181 187 188 155 78 126 160 183 159 207 171 200 212 204 206
169 172 183 183 194 207 198 203 191 194 214 210 202 205 214 233 217 203 212 218 225 224 218 215 215 185 172 174 168 130 155 159 177 182 188 134 166 150 194 208 210 217 214
155 156 159 182 194 201 181 191 193 199 213 222 225 226 217 212 217 205 209 223 235 229 201 199 209 187 179 181 173 180 165 176 144 144 192 165 158 146 210 207 202 206 210